{"data":{"norad_id":37153,"epoch":"2026-05-25T04:02:03.426144Z","epoch_age_seconds":53756,"freshness":"FRESH","line1":"1 37153U 10043B   26145.16809521  .00000042  00000+0  23855-3 0  9998","line2":"2 37153  82.4560  92.7581 0008336 126.2051 233.9799 12.40791636711511","mean_motion":12.40791636,"eccentricity":0.0008336,"inclination_deg":82.456,"raan_deg":92.7581,"arg_perigee_deg":126.2051,"mean_anomaly_deg":233.9799,"bstar":0.00023855,"rev_number":71151,"period_min":116.05494091193,"perigee_km":1496.6791677055,"apogee_km":1509.8190145967,"semimajor_km":7881.3860911511,"source":"CELESTRAK","updated_at":"2026-05-25T13:37:55.222776Z"}}